Theta_e
328 324 320 320 322 336 337 339 340 341 341 339 341 341 339 339 339 336 335 334 338 333 333 333 333 334 339 340 336 340 339 340 343
316 314 313 312 313 316 325 330 338 340 340 340 340 341 339 339 339 337 337 335 335 335 334 336 334 333 334 338 338 340 337 340 341
329 323 319 324 324 317 311 312 323 335 338 339 339 340 340 338 338 339 338 336 336 335 333 337 336 334 334 335 335 337 340 339 340
334 334 332 331 329 328 319 313 317 327 335 336 338 339 340 339 338 338 338 336 336 336 333 333 337 336 334 334 334 335 338 339 337
338 336 335 334 335 334 330 327 315 316 323 330 334 338 338 336 337 337 338 336 336 336 334 332 333 338 338 335 335 335 334 339 338
338 339 339 339 338 339 337 333 329 326 324 317 323 331 335 334 328 333 337 337 336 338 335 334 332 333 340 340 338 336 335 337 337
334 334 336 336 336 335 333 331 328 327 326 324 322 316 322 328 328 330 329 334 336 338 336 333 332 331 335 340 339 338 336 338 338
310 313 314 318 325 329 329 330 330 330 327 325 324 323 321 320 321 322 327 328 336 336 337 334 333 332 331 338 338 338 337 337 339
305 305 305 305 305 308 311 315 317 319 323 327 329 327 322 321 320 319 317 326 331 335 338 337 332 333 335 338 337 337 339 340 338
305 304 304 304 304 304 305 306 307 308 310 313 316 321 326 328 322 318 318 316 319 327 336 339 339 338 335 336 336 336 337 338 339
304 303 303 303 303 304 304 304 304 305 305 306 308 308 310 316 324 326 322 317 315 315 316 337 338 338 338 336 335 335 334 332 336
301 302 302 302 302 303 303 303 304 304 304 305 306 306 306 306 307 310 316 321 321 315 313 318 336 336 337 338 336 335 334 332 335
301 301 301 301 301 301 301 301 302 303 303 304 304 304 304 304 304 304 305 307 314 321 319 313 320 335 336 337 337 335 334 333 332
300 300 300 300 300 300 301 301 301 302 302 303 303 303 304 304 304 303 303 304 307 312 321 322 316 326 335 336 336 335 333 332 332
300 299 299 299 299 299 300 300 300 300 301 301 302 302 303 303 303 305 307 312 311 312 316 321 323 318 327 334 332 334 333 332 331
299 299 299 298 298 298 299 299 299 299 300 301 301 302 302 304 306 303 307 305 305 304 311 310 313 321 319 325 332 332 332 331 331
299 299 298 298 298 298 298 299 299 299 300 300 301 300 302 304 308 306 304 304 304 304 303 303 306 310 315 316 321 329 328 329 330
298 298 298 298 298 297 298 298 299 298 299 299 300 299 300 301 301 304 304 304 304 304 304 303 304 307 312 312 313 321 328 324 327
298 298 298 297 297 298 298 298 298 298 297 298 298 299 301 301 301 301 303 302 302 304 304 303 306 305 305 309 311 312 321 326 324
297 297 297 297 297 298 298 297 297 297 297 297 297 297 298 299 301 300 300 301 302 302 304 304 304 303 302 305 308 309 312 319 324
Wind_Speed
5 6 6 6 4 4 4 5 4 3 2 1 2 3 5 2 3 4 6 7 4 7 7 7 7 7 7 9 8 8 4 7 9
5 6 7 8 7 6 5 4 4 3 3 2 1 2 3 3 2 1 1 4 6 6 4 5 5 5 5 6 6 6 5 6 7
7 7 7 9 10 9 8 6 5 5 4 3 3 4 3 3 4 6 4 2 5 6 5 2 3 3 3 4 4 4 6 5 6
5 6 7 7 9 10 9 8 6 5 6 6 5 4 5 5 6 5 6 4 5 6 6 4 3 2 1 1 3 2 3 4 7
1 3 5 7 8 9 10 9 7 6 6 7 8 8 7 7 6 6 7 7 7 7 6 5 5 5 4 3 3 3 4 3 6
5 4 4 5 6 6 8 9 9 8 8 8 9 10 11 11 9 10 10 11 11 9 9 6 7 7 7 7 6 5 6 6 7
10 9 7 7 8 7 7 9 10 10 11 10 9 9 12 14 13 13 13 14 13 12 11 10 8 9 9 10 10 9 8 8 9
15 14 15 13 11 11 9 8 10 11 11 11 12 12 12 12 14 16 15 14 15 15 13 12 12 12 12 11 12 12 12 11 11
17 17 16 16 16 14 14 12 12 12 12 12 13 13 13 15 16 16 16 15 15 17 16 16 15 15 12 12 13 12 14 15 14
15 16 16 17 17 16 16 16 15 14 14 13 13 14 14 15 15 17 18 17 18 20 21 20 18 16 14 14 15 16 17 16 19
16 16 17 16 16 16 17 17 16 16 16 16 15 15 14 14 15 16 16 17 19 21 22 23 22 20 18 17 16 17 18 20 19
16 16 16 17 16 16 17 17 16 17 17 17 16 17 17 17 19 19 18 18 18 18 22 23 25 24 23 20 18 18 19 19 18
16 16 17 17 17 18 18 19 19 19 19 19 19 20 20 20 21 22 21 20 21 21 19 22 25 27 26 23 21 20 20 20 21
17 18 17 18 18 18 18 19 19 21 21 21 22 22 21 21 23 25 23 21 19 20 23 20 21 24 28 26 24 22 21 21 20
18 19 19 20 21 20 20 21 21 19 20 22 22 23 24 25 26 17 11 9 9 12 15 21 22 21 27 29 27 25 23 22 21
18 20 21 21 22 22 23 24 24 24 21 19 25 26 25 17 11 25 11 11 14 16 13 13 14 22 22 27 30 29 25 24 24
16 18 21 22 23 24 23 21 21 20 18 9 11 4 10 9 4 13 23 23 21 24 19 20 18 14 18 22 29 34 31 26 26
15 17 19 21 23 23 22 20 18 16 19 15 5 3 4 8 19 11 19 23 23 23 25 22 18 14 14 14 21 29 32 34 29
19 19 20 22 22 20 19 19 20 20 22 22 15 16 17 4 7 9 15 23 25 25 24 21 16 17 18 15 15 19 29 33 34
23 24 23 22 21 20 21 22 23 23 26 22 21 18 21 21 9 10 13 18 20 24 25 26 25 24 20 19 18 19 18 30 33
Wind_Direction
30 28 25 23 18 10 9 21 35 48 40 49 33 17 27 66 115 59 39 17 20 11 16 35 51 63 61 59 67 71 85 110 101
33 28 33 36 29 9 345 339 343 350 357 4 349 323 1 15 249 252 10 4 355 357 359 19 30 57 76 72 73 62 96 118 127
38 38 44 37 27 17 12 350 320 310 314 320 345 316 305 335 310 263 268 316 336 345 340 317 350 39 74 91 82 88 99 133 158
27 23 20 21 21 15 9 5 351 331 309 306 312 301 295 293 310 272 258 271 304 314 331 295 283 301 22 120 121 114 121 118 146
344 352 353 1 358 357 356 2 353 338 316 303 300 296 299 295 288 279 262 259 281 292 300 315 278 250 259 245 208 175 179 158 151
49 18 349 347 331 333 339 341 342 335 332 319 296 286 290 294 291 277 268 270 264 267 277 285 292 265 249 252 239 228 205 197 180
50 46 38 21 4 329 320 322 329 326 319 315 317 302 285 284 287 288 288 277 253 257 265 278 280 283 264 254 250 235 230 212 205
47 41 35 31 20 18 10 357 343 333 330 317 309 302 297 292 282 291 286 278 259 256 257 264 273 276 266 258 256 247 230 227 214
41 37 31 25 20 13 7 359 349 346 337 327 315 312 307 291 283 284 288 279 264 261 256 257 261 262 260 255 256 255 242 230 224
34 30 23 18 16 14 7 360 351 345 338 334 327 319 308 301 298 288 281 280 269 263 262 258 249 251 254 252 250 252 251 252 229
23 15 11 8 5 2 359 355 348 341 335 328 325 322 317 311 304 295 289 284 275 265 264 256 256 253 248 250 251 252 254 253 245
18 16 15 10 3 355 348 344 337 334 333 330 326 322 318 311 306 303 297 291 283 274 263 259 253 251 248 245 249 249 251 251 250
18 16 11 3 354 348 343 344 337 335 330 323 319 317 313 312 308 303 300 296 289 280 273 265 258 249 247 247 247 249 248 249 244
9 5 2 355 351 350 348 343 342 334 330 323 314 312 307 304 306 304 297 296 294 284 273 271 266 255 249 247 247 247 247 247 246
360 356 353 348 344 341 339 336 331 330 330 327 317 313 301 297 296 299 306 313 334 331 295 271 267 261 251 248 248 247 246 245 246
351 346 342 340 336 334 331 329 327 325 330 325 323 314 308 291 270 292 265 311 315 325 317 338 303 267 258 248 247 245 245 244 242
339 336 334 334 331 328 327 326 323 317 325 320 312 326 314 296 326 306 302 301 304 308 306 309 318 307 276 260 247 246 244 245 242
327 327 326 325 324 321 319 318 315 311 316 318 288 321 258 326 298 287 286 285 293 297 301 300 297 300 307 292 264 245 244 244 242
324 322 320 317 316 311 310 310 303 299 298 301 288 270 270 257 301 288 282 281 286 284 283 289 280 289 291 295 293 268 245 240 241
319 318 314 310 308 302 296 297 294 287 287 281 287 279 275 271 241 284 286 287 279 279 279 278 277 284 284 285 291 283 271 246 240